Torna al catalogo

COSMOS 1823 DEB

AttivoLEO
NORAD 18746·DEBRIS·🇷🇺 Russia

Lanciato Feb 20, 1987 da Plesetsk Cosmodrome

Loading…

Prossimi Passaggi (prossime 24 ore)

TLE

AggiornatoSource: Space-Track

Epoca: Sep 13, 2026, 23:07 UTC

1 18746U 87020Z   26256.96363146  .00001571  00000-0  61347-2 0  9999
2 18746  73.4727  95.4454 0030424 187.2640 294.7813 12.89354090777635

Traccia COSMOS 1823 DEB in tempo reale con AllMySat

Download on the App Store